Weather History for KUSE - April, 2014

Change the Weather History Date:

Wednesday, April 23, 2014

  Actual Average (KTOL) Record (KTOL)
Temperature  
Mean Temperature 45 °F 52 °F  
Max Temperature 57 °F 63 °F 86 °F (1960)
Min Temperature 33 °F 41 °F 21 °F (1986)
Degree Days  
Heating Degree Days 20 13  
Month to date heating degree days 394  
Since 1 July heating degree days 5820  
Cooling Degree Days 0 0  
Month to date cooling degree days 0  
Year to date cooling degree days 0  
Moisture  
Dew Point 27 °F    
Average Humidity 53    
Maximum Humidity 81    
Minimum Humidity 23    
Precipitation  
Precipitation 0.00 in 0.11 in 1.03 in (1977)
Month to date precipitation 2.46  
Year to date precipitation 9.06  
Snow  
Snow 0.00 in 0.00 in - ()
Month to date snowfall 1.2  
Since 1 July snowfall 37.4  
Snow Depth -    
Sea Level Pressure  
Sea Level Pressure 30.06 in    
Wind  
Wind Speed 9 mph (North)    
Max Wind Speed 16 mph    
Max Gust Speed 21 mph    
Visibility 10 miles    
Events      
T = Trace of Precipitation, MM = Missing Value Source: NWS Daily Summary

Daily Weather History Graph

Daily Weather History Graph

Search for Another Location

Airport or City:

Trip Planner

Search our weather history database for the weather conditions in past years. The results will help you decide how hot, cold, wet, or windy it might be!

Date:

Astronomy

Apr. 23, 2014 Rise Set
Actual Time 6:44 AM EDT 8:25 PM EDT
Civil Twilight 6:15 AM EDT 8:55 PM EDT
Nautical Twilight 5:39 AM EDT 9:31 PM EDT
Astronomical Twilight 5:01 AM EDT 10:09 PM EDT
Moon 3:20 AM EDT 2:28 PM EDT
Length of Visible Light 14h 40m
Length of Day
13h 41m
Waning Crescent, 35% of the Moon is Illuminated
Apr 23
Waning Crescent
Apr 29
New
May 6
First Quarter
May 14
Full
May 21
Last Quarter

Hourly Weather History & Observations

Time (EDT) Temp. Windchill Dew Point Humidity Pressure Visibility Wind Dir Wind Speed Gust Speed Precip Events Conditions
12:15 AM 42.8 °F 36.6 °F 28.4 °F 57% 29.96 in 10.0 mi NW 11.5 mph - N/A   Scattered Clouds
12:35 AM 41.0 °F 35.2 °F 28.4 °F 61% 29.96 in 10.0 mi NW 9.2 mph 16.1 mph N/A   Clear
12:55 AM 41.0 °F 34.7 °F 28.4 °F 61% 29.97 in 10.0 mi NNW 10.4 mph - N/A   Clear
1:15 AM 41.0 °F 33.1 °F 28.4 °F 61% 29.97 in 10.0 mi NNW 15.0 mph 20.7 mph N/A   Clear
1:35 AM 41.0 °F 35.2 °F 28.4 °F 61% 29.98 in 10.0 mi NNW 9.2 mph 18.4 mph N/A   Clear
1:55 AM 39.2 °F 33.0 °F 28.4 °F 65% 29.97 in 10.0 mi NNW 9.2 mph - N/A   Clear
2:15 AM 39.2 °F 32.5 °F 28.4 °F 65% 29.97 in 10.0 mi NNW 10.4 mph - N/A   Clear
2:35 AM 39.2 °F 33.6 °F 28.4 °F 65% 29.97 in 10.0 mi NNW 8.1 mph - N/A   Clear
2:55 AM 37.4 °F 32.1 °F 28.4 °F 70% 29.98 in 10.0 mi North 6.9 mph - N/A   Clear
3:15 AM 37.4 °F 31.4 °F 28.4 °F 70% 29.98 in 10.0 mi North 8.1 mph - N/A   Clear
3:35 AM 35.6 °F 29.9 °F 28.4 °F 75% 29.99 in 10.0 mi North 6.9 mph - N/A   Clear
3:55 AM 35.6 °F 29.9 °F 28.4 °F 75% 29.99 in 10.0 mi North 6.9 mph - N/A   Clear
4:15 AM 35.6 °F 27.1 °F 28.4 °F 75% 30.00 in 10.0 mi North 12.7 mph - N/A   Clear
4:35 AM 35.6 °F 29.2 °F 28.4 °F 75% 30.00 in 10.0 mi North 8.1 mph 16.1 mph N/A   Clear
4:55 AM 35.6 °F 28.0 °F 28.4 °F 75% 30.01 in 10.0 mi NNW 10.4 mph - N/A   Clear
5:15 AM 33.8 °F 26.4 °F 28.4 °F 81% 30.02 in 10.0 mi NNW 9.2 mph - N/A   Clear
5:35 AM 33.8 °F 27.0 °F 28.4 °F 81% 30.02 in 10.0 mi NW 8.1 mph - N/A   Mostly Cloudy
5:55 AM 33.8 °F 27.0 °F 28.4 °F 81% 30.03 in 10.0 mi NW 8.1 mph - N/A   Overcast
6:15 AM 33.8 °F 26.4 °F 28.4 °F 81% 30.04 in 10.0 mi NW 9.2 mph - N/A   Overcast
6:35 AM 35.6 °F 29.2 °F 30.2 °F 81% 30.05 in 10.0 mi NW 8.1 mph - N/A   Overcast
6:55 AM 35.6 °F 28.6 °F 30.2 °F 81% 30.05 in 10.0 mi NNW 9.2 mph 17.3 mph N/A   Overcast
7:15 AM 35.6 °F 27.5 °F 28.4 °F 75% 30.06 in 10.0 mi North 11.5 mph - N/A   Overcast
7:35 AM 37.4 °F 30.3 °F 30.2 °F 75% 30.06 in 10.0 mi North 10.4 mph - N/A   Overcast
7:55 AM 37.4 °F 28.9 °F 30.2 °F 75% 30.06 in 10.0 mi North 13.8 mph - N/A   Mostly Cloudy
8:15 AM 37.4 °F 28.2 °F 28.4 °F 70% 30.07 in 10.0 mi North 16.1 mph - N/A   Partly Cloudy
8:35 AM 37.4 °F 29.8 °F 30.2 °F 75% 30.08 in 10.0 mi North 11.5 mph 19.6 mph N/A   Clear
8:55 AM 37.4 °F 28.5 °F 28.4 °F 70% 30.08 in 10.0 mi North 15.0 mph - N/A   Clear
9:15 AM 39.2 °F 31.6 °F 30.2 °F 70% 30.09 in 10.0 mi North 12.7 mph - N/A   Scattered Clouds
9:35 AM 39.2 °F 32.0 °F 28.4 °F 65% 30.09 in 10.0 mi North 11.5 mph 18.4 mph N/A   Scattered Clouds
9:55 AM 41.0 °F 33.5 °F 30.2 °F 65% 30.09 in 10.0 mi North 13.8 mph - N/A   Clear
10:15 AM 41.0 °F 34.7 °F 30.2 °F 65% 30.10 in 10.0 mi North 10.4 mph 17.3 mph N/A   Partly Cloudy
10:35 AM 41.0 °F 35.2 °F 30.2 °F 65% 30.11 in 10.0 mi NNW 9.2 mph 16.1 mph N/A   Partly Cloudy
10:55 AM 42.8 °F 37.0 °F 30.2 °F 61% 30.11 in 10.0 mi North 10.4 mph 18.4 mph N/A   Clear
11:15 AM 42.8 °F 37.5 °F 30.2 °F 61% 30.11 in 10.0 mi North 9.2 mph 17.3 mph N/A   Clear
11:35 AM 44.6 °F 39.2 °F 30.2 °F 57% 30.11 in 10.0 mi North 10.4 mph - N/A   Clear
11:55 AM 46.4 °F 42.4 °F 30.2 °F 53% 30.10 in 10.0 mi Variable 8.1 mph 16.1 mph N/A   Clear
12:15 PM 48.2 °F - 30.2 °F 50% 30.10 in 10.0 mi North 10.4 mph - N/A   Clear
12:35 PM 48.2 °F - 28.4 °F 46% 30.10 in 10.0 mi Variable 6.9 mph 15.0 mph N/A   Clear
12:55 PM 50.0 °F - 28.4 °F 43% 30.10 in 10.0 mi North 10.4 mph 17.3 mph N/A   Clear
1:15 PM 50.0 °F - 28.4 °F 43% 30.09 in 10.0 mi Variable 6.9 mph 16.1 mph N/A   Clear
1:35 PM 51.8 °F - 26.6 °F 38% 30.09 in 10.0 mi Variable 5.8 mph 15.0 mph N/A   Clear
1:55 PM 51.8 °F - 28.4 °F 41% 30.09 in 10.0 mi NNE 6.9 mph 16.1 mph N/A   Clear
2:15 PM 51.8 °F - 28.4 °F 41% 30.08 in 10.0 mi Calm Calm 11.5 mph N/A   Clear
2:35 PM 53.6 °F - 28.4 °F 38% 30.08 in 10.0 mi Calm Calm 13.8 mph N/A   Clear
2:55 PM 53.6 °F - 28.4 °F 38% 30.08 in 10.0 mi NNE 8.1 mph 15.0 mph N/A   Clear
3:15 PM 53.6 °F - 26.6 °F 35% 30.09 in 10.0 mi Calm Calm 13.8 mph N/A   Clear
3:35 PM 55.4 °F - 26.6 °F 33% 30.09 in 10.0 mi NNE 10.4 mph - N/A   Clear
3:55 PM 55.4 °F - 24.8 °F 31% 30.08 in 10.0 mi Calm Calm - N/A   Clear
4:15 PM 55.4 °F - 26.6 °F 33% 30.08 in 10.0 mi Variable 6.9 mph 15.0 mph N/A   Clear
4:35 PM 55.4 °F - 24.8 °F 31% 30.08 in 10.0 mi Variable 3.5 mph 15.0 mph N/A   Clear
4:55 PM 57.2 °F - 26.6 °F 31% 30.08 in 10.0 mi Variable 4.6 mph - N/A   Clear
5:15 PM 57.2 °F - 23.0 °F 27% 30.07 in 10.0 mi North 9.2 mph 15.0 mph N/A   Clear
5:35 PM 57.2 °F - 23.0 °F 27% 30.07 in 10.0 mi NW 6.9 mph - N/A   Clear
5:55 PM 57.2 °F - 21.2 °F 25% 30.07 in 10.0 mi NNE 10.4 mph - N/A   Clear
6:15 PM 57.2 °F - 21.2 °F 25% 30.07 in 10.0 mi Variable 3.5 mph - N/A   Clear
6:35 PM 57.2 °F - 19.4 °F 23% 30.07 in 10.0 mi North 8.1 mph - N/A   Clear
6:55 PM 55.4 °F - 17.6 °F 23% 30.06 in 10.0 mi NNE 8.1 mph - N/A   Clear
7:15 PM 55.4 °F - 17.6 °F 23% 30.07 in 10.0 mi NNE 4.6 mph - N/A   Clear
7:35 PM 55.4 °F - 19.4 °F 25% 30.07 in 10.0 mi NNE 6.9 mph - N/A   Clear
7:55 PM 53.6 °F - 23.0 °F 30% 30.08 in 10.0 mi North 5.8 mph - N/A   Clear
8:15 PM 51.8 °F - 21.2 °F 30% 30.09 in 10.0 mi North 4.6 mph - N/A   Clear
8:35 PM 51.8 °F - 21.2 °F 30% 30.09 in 10.0 mi NE 3.5 mph - N/A   Clear
8:55 PM 50.0 °F - 23.0 °F 35% 30.09 in 10.0 mi NNE 3.5 mph - N/A   Clear
9:15 PM 50.0 °F - 24.8 °F 37% 30.10 in 10.0 mi NE 4.6 mph - N/A   Clear
9:35 PM 48.2 °F - 26.6 °F 43% 30.10 in 10.0 mi NE 4.6 mph - N/A   Clear
9:55 PM 48.2 °F - 28.4 °F 46% 30.11 in 10.0 mi ENE 4.6 mph - N/A   Clear
10:15 PM 48.2 °F - 24.8 °F 40% 30.11 in 10.0 mi ENE 4.6 mph - N/A   Clear
10:35 PM 48.2 °F - 28.4 °F 46% 30.11 in 10.0 mi ENE 5.8 mph - N/A   Clear
10:55 PM 46.4 °F 42.9 °F 28.4 °F 50% 30.11 in 10.0 mi NE 6.9 mph - N/A   Clear
11:15 PM 46.4 °F 44.3 °F 28.4 °F 50% 30.12 in 10.0 mi ENE 4.6 mph - N/A   Clear
11:35 PM 46.4 °F 42.9 °F 30.2 °F 53% 30.12 in 10.0 mi East 6.9 mph - N/A   Clear
11:55 PM 46.4 °F 41.9 °F 30.2 °F 53% 30.11 in 10.0 mi East 9.2 mph - N/A   Clear